Zurück zum Katalog

COSMOS 700

AktivNavigationPO
NORAD 7593·PAYLOAD·🇷🇺 Russia

Gestartet Dec 26, 1974 von Plesetsk Cosmodrome

Loading…

Nächste Überflüge (nächste 24 Stunden)

TLE

AktuellSource: Space-Track

Epoche: Sep 14, 2026, 04:10 UTC

1 07593U 74105A   26257.17415720  .00000061  00000-0  46401-4 0  9996
2 07593  82.9558 341.9317 0025582  54.7980 328.2714 13.76993202597534

Verfolge COSMOS 700 in Echtzeit mit AllMySat

Download on the App Store